Chambery, France

2:02 AM CET on February 20, 2017 (GMT +0100)
Aix-les-Bains

Weather History for LFLB - December, 2012

Change the Weather History Date:

Saturday, December 29, 2012

  Actual Average Record
Temperature  
Mean Temperature 38 °F -  
Max Temperature 48 °F 40 °F 50 °F (1998)
Min Temperature 28 °F 29 °F 17 °F (2005)
Degree Days  
Heating Degree Days 27    
Moisture  
Dew Point 34 °F    
Average Humidity 90    
Maximum Humidity 100    
Minimum Humidity 66    
Precipitation  
Precipitation 0.00 in - - ()
Sea Level Pressure  
Sea Level Pressure 30.22 in    
Wind  
Wind Speed 2 mph ()    
Max Wind Speed 9 mph    
Max Gust Speed -    
Visibility 4.3 miles    
Events Fog    
Averages and records for this station are not official NWS values.
T = Trace of Precipitation, MM = Missing Value Source: Averaged Metar Reports

Daily Weather History Graph

Daily Weather History Graph

Search for Another Location

Airport or City:

Trip Planner

Search our weather history database for the weather conditions in past years. The results will help you decide how hot, cold, wet, or windy it might be!

Date:

Astronomy

Dec. 29, 2012 Rise Set
Actual Time 8:16 AM CET 5:00 PM CET
Civil Twilight 7:42 AM CET 5:34 PM CET
Nautical Twilight 7:04 AM CET 6:12 PM CET
Astronomical Twilight 6:28 AM CET 6:48 PM CET
Moon 6:23 PM CET (12/29) 8:36 AM CET (12/29)
Length of Visible Light 9h 52m
Length of Day
8h 43m
Full, 99% of the Moon is Illuminated
Dec 29
Full
Jan 5
Last Quarter
Jan 11
New
Jan 19
First Quarter
Jan 27
Full

Hourly Weather History & Observations

Time (CET) Temp. Windchill Dew Point Humidity Pressure Visibility Wind Dir Wind Speed Gust Speed Precip Events Conditions
12:00 AM 33.8 °F - 32.0 °F 93% 30.39 in 1.1 mi Calm Calm - N/A   Mist
12:30 AM 33.8 °F - 32.0 °F 93% 30.36 in 3.7 mi Calm Calm - N/A   Unknown
1:00 AM 32.0 °F 28.7 °F 30.2 °F 93% 30.36 in 0.9 mi South 3.5 mph - N/A   Partly Cloudy
1:30 AM 32.0 °F - 32.0 °F 100% 30.36 in - Variable 1.2 mph - N/A   Mist
2:00 AM 32.0 °F 28.7 °F 32.0 °F 100% 30.33 in 0.6 mi SSE 3.5 mph - N/A Fog Fog
2:30 AM 32.0 °F 26.4 °F 30.2 °F 93% 30.33 in 4.3 mi SSE 5.8 mph - N/A   Unknown
3:00 AM 30.2 °F 24.3 °F 30.2 °F 100% 30.33 in 3.1 mi South 5.8 mph - N/A   Mist
3:30 AM 30.2 °F 23.4 °F 30.2 °F 100% 30.33 in 3.7 mi South 6.9 mph - N/A   Unknown
4:00 AM 32.0 °F 26.4 °F 30.2 °F 93% 30.33 in 3.7 mi SSE 5.8 mph - N/A   Unknown
4:30 AM 32.0 °F 27.5 °F 30.2 °F 93% 30.30 in 5.0 mi South 4.6 mph - N/A   Unknown
5:00 AM 32.0 °F 28.7 °F 30.2 °F 93% 30.30 in 3.7 mi Variable 3.5 mph - N/A   Unknown
5:30 AM 32.0 °F - 30.2 °F 93% 30.30 in 3.1 mi Calm Calm - N/A   Mist
6:00 AM 32.0 °F - 30.2 °F 93% 30.27 in 6.2 mi Calm Calm - N/A Fog Shallow Fog
6:30 AM 30.2 °F - 30.2 °F 100% 30.27 in 3.1 mi South 1.2 mph - N/A Fog Fog
7:00 AM 30.2 °F - 30.2 °F 100% 30.27 in 5.0 mi South 2.3 mph - N/A Fog Partly Cloudy
7:30 AM 30.2 °F - 28.4 °F 93% 30.24 in 6.2 mi Calm Calm - N/A Fog Shallow Fog
8:00 AM 30.2 °F - 30.2 °F 100% 30.27 in 3.1 mi Calm Calm - N/A Fog Fog
8:30 AM 28.4 °F - 28.4 °F 100% 30.27 in 0.6 mi Calm Calm - N/A Fog Scattered Clouds
9:00 AM 30.2 °F - 28.4 °F 93% 30.27 in 6.2 mi Variable 2.3 mph - N/A Fog Shallow Fog
9:30 AM 32.0 °F - 32.0 °F 100% 30.24 in 6.2 mi Variable 1.2 mph - N/A Fog Shallow Fog
10:00 AM 35.6 °F - 35.6 °F 100% 30.24 in 6.2 mi Variable 1.2 mph - N/A   Partly Cloudy
10:30 AM 37.4 °F - 35.6 °F 93% 30.24 in 6.2 mi Calm Calm - N/A   Partly Cloudy
11:00 AM 39.2 °F - 37.4 °F 93% 30.24 in - Variable 2.3 mph - N/A   Clear
11:30 AM 39.2 °F - 37.4 °F 93% 30.21 in - Calm Calm - N/A   Clear
12:00 PM 41.0 °F - 35.6 °F 81% 30.21 in - Variable 2.3 mph - N/A   Clear
12:30 PM 42.8 °F 41.1 °F 35.6 °F 76% 30.18 in - North 3.5 mph - N/A   Clear
1:00 PM 44.6 °F 43.1 °F 35.6 °F 71% 30.15 in - Variable 3.5 mph - N/A   Clear
1:30 PM 44.6 °F 42.2 °F 35.6 °F 71% 30.15 in - NNE 4.6 mph - N/A   Clear
2:00 PM 44.6 °F 42.2 °F 35.6 °F 71% 30.12 in - North 4.6 mph - N/A   Clear
2:30 PM 44.6 °F 41.4 °F 37.4 °F 76% 30.12 in - North 5.8 mph - N/A   Clear
3:00 PM 46.4 °F 45.2 °F 35.6 °F 66% 30.09 in - North 3.5 mph - N/A   Clear
3:30 PM 46.4 °F - 37.4 °F 71% 30.09 in - Variable 2.3 mph - N/A   Clear
4:00 PM 48.2 °F - 37.4 °F 66% 30.09 in - WSW 2.3 mph - N/A   Clear
4:30 PM 42.8 °F - 37.4 °F 81% 30.09 in - NNW 2.3 mph - N/A   Clear
5:00 PM 42.8 °F - 37.4 °F 81% 30.09 in - WNW 1.2 mph - N/A   Clear
6:00 PM 37.4 °F - 35.6 °F 93% 30.09 in - Calm Calm - N/A   Clear
6:30 PM 37.4 °F - 35.6 °F 93% 30.09 in - ESE 1.2 mph - N/A   Clear
7:00 PM 35.6 °F - 35.6 °F 100% 30.09 in - Variable 2.3 mph - N/A   Clear
7:30 PM 35.6 °F - 35.6 °F 100% 30.12 in - Calm Calm - N/A   Clear
8:00 PM 37.4 °F - 35.6 °F 93% 30.12 in - Calm Calm - N/A   Clear
8:30 PM 35.6 °F - 33.8 °F 93% 30.15 in 4.3 mi Calm Calm - N/A   Unknown
9:00 PM 35.6 °F - 33.8 °F 93% 30.18 in 5.6 mi Variable 2.3 mph - N/A   Unknown
9:30 PM 35.6 °F 31.7 °F 35.6 °F 100% 30.18 in 5.0 mi Variable 4.6 mph - N/A   Unknown
10:00 PM 37.4 °F - 35.6 °F 93% 30.21 in 6.2 mi Variable 1.2 mph - N/A   Overcast
10:30 PM 37.4 °F - 35.6 °F 93% 30.21 in 6.2 mi Variable 2.3 mph - N/A   Unknown
11:00 PM 42.8 °F 40.1 °F 35.6 °F 76% 30.21 in 6.2 mi South 4.6 mph - N/A   Unknown
11:30 PM 46.4 °F 41.9 °F 37.4 °F 71% 30.18 in 6.2 mi SSE 9.2 mph - N/A   Unknown